www.pogodaiklimat.ru

Погода и климат >> Архив погоды >> Буркина-Фасо >> Boromo


ПОГОДА в Boromo

  • Прогноз погоды в Boromo
  • Монитор погоды в Boromo
  • Климат города

АРХИВ ПОГОДЫ в Boromo

Время (UTC), дата Ветер
(напр.,м/с)
 
Видим.   Явления Облачность Т
(С)
Тd
(С)
f
(%)
Тe
(С)
Тes
(С)
Комфортность P
(гПа)
Po
(гПа)
Тmin
(С)
Tmax
(С)
R
(мм)
R24
(мм)
S
(см)
06 17.05 С 1 10 км слабый дождь {гроза} 9/0
[Ac As]
+22.8 +21.5 92 +30 +30 очень
душно
1010.8 980.7 +20.0 31
09 17.05 ЮЗ 4 15 км {дождь} 9/0
[Ac As Ci sp]
+25.2 +19.6 71 +31 +33 очень
душно
1009.9 979.9
12 17.05 Ю 2 15 км {дождь} 9/0
[Ac As Cs]
+30.8 +21.0 56 +38 +55 опасность
солнечного
удара
1008.8 978.5
15 17.05 штиль 0 15 км 9/0
[Ac cast Ci sp]
+32.7 +20.7 49 +40 +53 опасность
солнечного
удара
1007.2 977.1
18 17.05 штиль 0 15 км 9/0
[Ac As Ci sp]
+31.6 +22.3 58 +41 +41 опасность
перегрева
1007.0 976.8 +33.0
00 18.05 штиль 0 10 км 9/0
[Ci sp]
+28.0 +25.5 86 +41 +41 опасность
перегрева
1008.4 978.4
03 18.05 штиль 0 10 км 9/0
[Ci sp]
+26.4 +23.7 85 +36 +36 очень
душно
1007.8 977.8
06 18.05 штиль 0 10 км 9/0
[Ci sp]
+25.4 +23.4 89 +34 +34 очень
душно
1008.7 978.6 +25.1
09 18.05 ЮЗ 2 15 км 9/0
[Ci sp]
+29.6 +21.1 60 +37 +46 очень
душно
1010.3 980.2
12 18.05 СЗ 2 15 км 9/1 600 м
[Sc Ci sp]
+34.1 +21.7 48 +42 +58 опасность
перегрева
1008.6 978.7
15 18.05 С 2 15 км 9/3 600 м
[Cu Sc Ci sp]
+35.5 +21.1 43 +43 +50 опасность
перегрева
1005.8 976.0
18 18.05 СЗ 2 15 км гроза без осадков 9/1 800 м
[Cb cap Ac As Ci sp]
+35.2 +21.2 44 +42 +43 опасность
перегрева
1005.8 975.9 +36.0
00 19.05 ЮЗ 1 10 км слабый дождь {гроза} 10/1 1200 м
[Cb cap Ac As]
+23.9 +22.6 92 +31 +31 очень
душно
1010.7 980.5 19
03 19.05 ЮЗ 1 10 км слабый дождь 10/0
[Ac As]
+24.0 +23.1 95 +32 +32 очень
душно
1008.6 978.6
06 19.05 штиль 0 10 км в посл. час дождь 9/0
[Ac As Ci sp]
+24.3 +23.1 93 +32 +32 очень
душно
1010.3 980.2 +23.4 21
09 19.05 ЮЗ 2 15 км 9/1 600 м
[Sc Ac As Ci sp]
+28.0 +24.5 81 +39 +45 очень
душно
1012.3 981.9
12 19.05 Ю 2 15 км 9/3 600 м
[Cu Sc Ac trans Ci sp]
+32.4 +24.8 64 +45 +54 опасность
перегрева
1010.9 980.7
15 19.05 штиль 0 15 км 9/5 600 м
[Cu Sc Ci sp]
+35.0 +23.3 51 +46 +53 опасность
перегрева
1008.0 978.0
18 19.05 ЮВ 5 10 км гроза без осадков 9/3 600 м
[Cb cap Ac As Ci sp]
+28.8 +22.8 70 +38 +38 очень
душно
1010.1 979.7 +35.0
00 20.05 штиль 0 10 км в посл. час дождь {гроза} 10/0
[Ac As]
+25.6 +24.3 93 +36 +36 очень
душно
1011.4 981.2 5
03 20.05 штиль 0 10 км 9/1 400 м
[St Ac As Ci sp]
+25.6 +24.8 95 +36 +36 очень
душно
1009.5 979.6
06 20.05 штиль 0 10 км 9/1 400 м
[St Ac As Ci sp]
+25.4 +24.6 95 +36 +36 очень
душно
1011.2 980.9 +24.7 5
09 20.05 ЮВ 3 15 км 9/0
[Ac trans Ci sp]
+28.0 +22.2 71 +37 +42 очень
душно
1012.9 982.4
12 20.05 штиль 0 15 км 9/1 600 м
[Cu Sc Ac trans Ci sp]
+31.9 +23.3 60 +42 +57 опасность
перегрева
1012.0 981.8
15 20.05 С 1 15 км 9/4 600 м
[Cu Sc Ci sp]
+34.2 +22.9 52 +44 +52 опасность
перегрева
1009.2 979.2
18 20.05 штиль 0 15 км 9/1 600 м
[Cu Sc Ci sp]
+34.0 +23.4 54 +45 +45 опасность
перегрева
1009.0 978.9 +35.1
00 21.05 ЮЗ 2 10 км 9/0
[Ac As Ci sp]
+26.0 +21.6 77 +33 +33 очень
душно
1012.4 982.2
03 21.05 ЮЗ 1 10 км 9/0
[Ac As Ci sp]
+25.2 +21.7 81 +32 +32 очень
душно
1010.9 980.8
06 21.05 штиль 0 10 км 9/0
[Ci sp]
+24.4 +22.1 87 +32 +32 очень
душно
1010.8 980.6 +24.0
09 21.05 ЮЗ 1 15 км 9/0
[Ci sp]
+28.1 +22.9 73 +37 +47 очень
душно
1011.7 981.6
12 21.05 ЮЗ 2 15 км 9/0
[Ci sp]
+33.4 +24.5 60 +46 +64 опасность
перегрева
1010.5 980.4
15 21.05 штиль 0 15 км 9/1 600 м
[Sc Ac inh Ci sp]
+36.2 +22.8 46 +46 +54 опасность
перегрева
1007.8 977.9
18 21.05 штиль 0 15 км 9/0
[Ci sp]
+35.2 +23.9 52 +47 +47 опасность
перегрева
1007.4 977.5 +36.9
00 22.05 штиль 0 10 км 9/0
[Ci sp]
+30.3 +25.2 74 +44 +44 опасность
перегрева
1008.8 979.0
03 22.05 ЮЗ 2 10 км 9/0
[Ci sp]
+29.1 +24.8 78 +42 +42 опасность
перегрева
1007.3 977.6
06 22.05 штиль 0 10 км 9/0
[Ci sp]
+28.0 +25.2 85 +41 +41 опасность
перегрева
1008.8 979.0 +27.8
09 22.05 ЮЗ 3 15 км 9/0
[Ci sp]
+31.2 +24.3 67 +43 +50 опасность
перегрева
1010.0 980.1
12 22.05 штиль 0 15 км 9/3 600 м
[Sc Ci sp]
+34.6 +24.3 55 +47 +64 опасность
перегрева
1008.7 978.9
15 22.05 штиль 0 15 км 9/1 600 м
[Sc Ci sp]
+36.6 +22.6 45 +46 +58 опасность
перегрева
1005.9 976.3
18 22.05 СЗ 2 10 км 9/0
[Ci sp]
+35.1 +23.3 51 +46 +46 опасность
перегрева
1005.0 975.3 +37.0
00 23.05 ЮЗ 1 10 км 9/0
[Ci sp]
+30.4 +24.5 71 +43 +43 опасность
перегрева
1007.0 977.4
03 23.05 ЮЗ 2 10 км 9/0
[Ci sp]
+29.2 +24.0 74 +41 +41 опасность
перегрева
1006.3 976.7
06 23.05 штиль 0 10 км 9/0
[Ci sp]
+28.0 +24.5 81 +39 +39 очень
душно
1007.6 977.8 +27.7
09 23.05 ЮЗ 2 15 км 9/0
[Ci sp]
+30.7 +23.9 67 +42 +51 опасность
перегрева
1009.6 979.7
12 23.05 З 2 15 км 9/0
[Ci sp]
+35.0 +23.0 50 +45 +63 опасность
перегрева
1008.7 978.9
15 23.05 ЮЗ 2 15 км 9/1 600 м
[Sc Ci sp]
+37.4 +22.2 42 +46 +55 опасность
перегрева
1006.6 977.0
18 23.05 ЮЗ 1 10 км 9/0
[Ci sp]
+35.4 +23.3 50 +46 +46 опасность
перегрева
1006.1 976.3 +36.8
00 24.05 Ю 3 10 км 9/0
[Ci sp]
+29.6 +19.9 56 +36 +36 очень
душно
1009.3 979.5
03 24.05 Ю 2 10 км зарница 9/1 1200 м
[Cb cap Ac As Ci sp]
+27.8 +20.7 65 +35 +35 очень
душно
1008.3 978.6

 

Местоположение метеостанции Boromo (Буркина-Фасо): широта 11.75 долгота -2.93 высота над уровнем моря 271 м.

В архиве по умолчанию представлена погода в Boromo за последнюю неделю. Архивные данные за месяц целиком и за предыдущие месяцы, начиная с января 2011 года, Вы можете получить, выбрав интересующий диапазон дат из раскрывающегося списка и нажав кнопку "Ввод!".

Внимание! Время в таблицах - всемирное. Для получения местного времени необходимо прибавить поправку, которая в Boromo равна 0 ч.

Смотрите также архив погоды в соседних городах и на ближайших метеорологических станциях:

Погода в Dedougou (Буркина-Фасо) (100 км)
Погода в Gaoua (Буркина-Фасо) (160 км)
Погода в Bobo-Dioulasso (Буркина-Фасо) (165 км)
Погода в Ouagadougou (Буркина-Фасо) (167 км)
Погода в Wa (Гана) (195 км)
Погода в Po (Буркина-Фасо) (205 км)
Погода в Ouahigouya (Буркина-Фасо) (210 км)
Погода в Navrongo (Гана) (221 км)
Погода в San (Мали) (271 км)
Погода в Koutiala (Мали) (285 км)

Пояснения к столбцам:

Ветер - указаны скорость ветра в м/с - средняя за 10 мин, порывы в срок и между сроками (в фигурных скобках) и направление, откуда дует ветер: С - северный, СВ - северо-восточный, В - восточный, ЮВ - юго-восточный, Ю - южный, ЮЗ - юго-западный, З - западный, СЗ - северо-западный.
Видимость - горизонтальная дальность видимости в метрах или километрах. При видимости от 1 до 10 км при отсутствии осадков обычно наблюдается дымка, при ухудшении видимости до 1 км и менее - туман. В сухую погоду видимость может ухудшаться дымом, пылью или мглою.
Явления - указаны атмосферные явления, наблюдавшиеся в срок или в последний час перед сроком; фигурными скобками обозначены явления, наблюдавшиеся между сроками (за 1-3 часа до срока); квадратными скобками обозначены град или гололедные отложения с указанием их диаметра в мм.
Облачность - указаны через наклонную черту общая и нижняя облачность в баллах и высота нижней границы облаков в метрах; квадратными скобками обозначены формы облаков: Ci - перистые, Cs - перисто-слоистые, Cc - перисто-кучевые, Ac - высококучевые, As - высокослоистые, Sc - слоисто-кучевые, Ns - слоисто-дождевые, Cu - кучевые, Cb - кучево-дождевые. Подробнее классификацию облаков см. в Атласе облаков (PDF).
T - Температура воздуха - температура, измеренная на высоте 2 м над землей.
Td - Температура точки росы - температура, при понижении до которой содержащийся в воздухе водяной пар достигнет насыщения.
f - Относительная влажность воздуха - влажноcть воздуха, измеренная на высоте 2 м над землей.
Te - Эффективная температура - температура, которую ощущает одетый по сезону человек в тени. Характеристика душности погоды. При расчете учитывается влияние влажности воздуха и скорости ветра на теплоощущения человека.
Tes - Эффективная температура на солнце - температура, которую ощущает человек, с поправкой на солнечный нагрев. Характеристика знойности погоды. Зависит от высоты солнца над горизонтом, облачности и скорости ветра. Ночью, в пасмурную погоду, а также при ветре 12 м/с и более поправка равна нулю.
P - Атмосферное давление - приведенное к уровню моря атмосферное давление.
Po - Атмосферное давление - измеренное на уровне метеостанции атмосферное давление.
Tmin - Минимальная температура - минимум температуры воздуха на высоте 2 м над землей.
Tmax - Максимальная температура - максимум температуры воздуха на высоте 2 м над землей.
R - Количество осадков - Количество выпавших осадков за период времени, мм. При наведении курсора мыши на число - период времени, за который выпало указанное количество осадков.
R24 - Количество осадков - Количество выпавших осадков за 24 часа, мм.
S - Снежный покров - Высота снежного покрова, см. При наведении курсора мыши на число - состояние снежного покрова и степень покрытия местности в баллах.